Regional Weather Roundup
Issued by NWS

Home | Current Version | Previous Version | Graphics & Text | Print | Product List | Glossary On
Versions: 1 2 3 4 5 6 7 8 9 10 11 12 13 14 15 16 17 18 19 20 21 22 23 24 25 26 27 28 29 30 31 32 33 34 35 36 37 38 39 40 41 42 43 44 45 46 47 48 49 50
000
ASUS45 KBOU 211607
RWRCO

WEATHER ROUNDUP FOR COLORADO
NATIONAL WEATHER SERVICE DENVER/BOULDER CO
1000 AM MDT FRI JUL 21 2017

NOTE: "FAIR" INDICATES FEW OR NO CLOUDS BELOW 12000 FEET WITH NO
SIGNIFICANT WEATHER AND/OR OBSTRUCTIONS TO VISIBILITY.

COZ001>005-013-030-031-211700-
...NORTHWEST COLORADO...

CITY           SKY/WX    TMP DP  RH WIND       PRES   REMARKS
CRAIG          FAIR      76  48  37 NE8       30.25F
HAYDEN         FAIR      73  46  38 E7        30.28S
MEEKER         PTSUNNY   72  55  55 SE6       30.27S
RABBIT EARS PA PTSUNNY   57  46  67 CALM      30.57S
STEAMBOAT SPGS FAIR      69  51  52 CALM      30.30F
WALDEN         FAIR      66  48  52 S5        30.40S
$$

COZ006>008-011-211700-
...WEST CENTRAL VALLEYS...

CITY           SKY/WX    TMP DP  RH WIND       PRES   REMARKS
GRAND JUNCTION FAIR      79  54  41 SE12      30.16S
MONTROSE       FAIR      75  51  43 S5        30.23F
EAGLE          SUNNY     70  50  49 CALM      30.32F
RIFLE          FAIR      74  55  51 N5        30.22S
DELTA          FAIR      80  49  34 CALM      30.20S
NUCLA          NOT AVBL
$$

COZ017>023-064>068-211700-
...SOUTHWEST COLORADO...

CITY           SKY/WX    TMP DP  RH WIND       PRES   REMARKS
DURANGO        FAIR      72  51  47 E8        30.30F
CORTEZ         FAIR      73  58  59 NE5       30.25F
PAGOSA SPRINGS FAIR      71  48  44 CALM      30.38S
TELLURIDE      CLOUDY    62  53  72 CALM      30.48S
WOLF CREEK PAS FAIR      52  43  71 CALM      30.72S
$$

COZ009-010-012-014-032>034-037-058>063-211700-
...CENTRAL COLORADO...

CITY           SKY/WX    TMP DP  RH WIND       PRES   REMARKS
ASPEN          FAIR      71  51  49 N7        30.35F
BUENA VISTA    FAIR      69  46  43 SE6       30.38F
COPPER MTN     FAIR      59  45  58 NW7       30.69S
BERTHOUD PASS  FAIR      48  34  57 NW9       30.71R
COTTONWOOD PAS FAIR      70  43  37 SE6       30.52F
GUNNISON       FAIR      66  50  56 CALM      30.39F
KREMMLING      FAIR      73  52  46 W5        30.38F
LEADVILLE      FAIR      65  42  43 N5        30.48F
MONARCH PASS   FAIR      55  39  54 W7        30.79S
SALIDA         FAIR      74  47  38 N5        30.42F
SUNLIGHT       CLOUDY    55  43  62 CALM      30.62S
WILKERSON PASS FAIR      59  36  41 NW3       30.65F
$$

COZ069>075-211700-
...SAN LUIS VALLEY/SANGRE DE CRISTO MOUNTAINS...

CITY           SKY/WX    TMP DP  RH WIND       PRES   REMARKS
ALAMOSA        FAIR      70  51  51 CALM      30.36S
DEL NORTE      FAIR      69  47  46 E5        30.40S
LA VETA PASS   NOT AVBL
SAGUACHE         N/A    N/A N/A N/A MISG        N/A
$$

COZ035-036-038>040-211700-
...NORTHERN COLORADO FRONT RANGE...

CITY           SKY/WX    TMP DP  RH WIND       PRES   REMARKS
DENVER INTL AP FAIR      84  50  30 S9        30.13F
DMNS CITY PARK   N/A     82  52  35 S6G12     30.13S
AURORA         MOSUNNY   80  53  39 S6        30.16F
FRONT RANGE AP FAIR      84  50  30 SW7       30.16S
ERIE MUNI ARPT FAIR      86  46  24 S9        30.10F
BOULDER MUN AP FAIR      88  46  23 SE7       30.10S
CENTENNIAL     FAIR      81  49  32 SE8       30.17F
BROOMFIELD     FAIR      84  48  28 S12       30.15F
FORT COLLINS   FAIR      84  54  35 VRB5      30.11S
LONGMONT       FAIR      86  52  31 NE3       30.11S
$$

COZ041-046-047-076>085-087-088-211700-
...PIKES PEAK/PALMER DIVIDE AND SOUTHERN FOOTHILLS...

CITY           SKY/WX    TMP DP  RH WIND       PRES   REMARKS
COLO. SPRINGS  FAIR      83  51  33 N9        30.21S
A. F. ACADEMY  FAIR      79  49  34 N8        30.22F
SCHRIEVER AFB  FAIR      81  47  30 N9        30.21S
CHEYENNE MTN   FAIR      78  49  36 NE8       30.22R
ELLICOTT       FAIR     N/A N/A N/A NW5       30.19S
FALCON           N/A     79  47  32 N6        30.27S
FORT CARSON    FAIR      83  50  32 N10       30.18S
LIMON          FAIR      82  56  40 NW8       30.14S
MONUMENT HILL  FAIR      75  48  38 N5        30.29F
CANON CITY     SUNNY     84  55  37 SW9       30.15S
WALSENBURG     FAIR      88  46  23 CALM      30.19F
TRINIDAD       FAIR      85  46  25 NW9       30.17S
$$

COZ042>045-048>051-090-091-211700-
...NORTHEAST COLORADO...

CITY           SKY/WX    TMP DP  RH WIND       PRES   REMARKS
GREELEY ARPT   FAIR      84  57  39 W7        30.10S
AKRON          NOT AVBL
BURLINGTON     FAIR      88  62  41 N6        30.03S
WRAY           NOT AVBL
YUMA           NOT AVBL
STERLING       FAIR      90  54  29 W9G16     30.01S
HOLYOKE        FAIR      95  54  24 N10G17    29.99R
FORT MORGAN    FAIR      85  51  31 W12       30.08S
$$

COZ086-089-092>099-211700-
...SOUTHEAST COLORADO...

CITY           SKY/WX    TMP DP  RH WIND       PRES   REMARKS
PUEBLO         FAIR      85  53  33 S7        30.09S
LA JUNTA       FAIR      88  55  32 N5        30.05F
LAMAR          FAIR      84  59  42 W6        29.98F
SPRINGFIELD      N/A     88  57  34 SW14G21   30.06S
$$



USA.gov is the U.S. government's official web portal to all federal, state and local government web resources and services.